TimeICT,TemperatureF,Dew PointF,Humidity,Sea Level PressureIn,VisibilityMPH,Wind Direction,Wind SpeedMPH,Gust SpeedMPH,PrecipitationIn,Events,Conditions,WindDirDegrees,DateUTC
12:00 AM,78.8,73.4,83,29.92,4.3,NW,9.2,-,N/A,Rain,Rain,310,2011-11-12 17:00:00
12:30 AM,77.0,73.4,89,29.92,2.5,NW,3.5,-,N/A,Rain,Rain,320,2011-11-12 17:30:00
1:00 AM,78,77,95,29.86,4,Calm,Calm,,,Rain-Thunderstorm,Thunderstorms and Rain,,2011-11-12 18:00:00
1:00 AM,77.0,73.4,89,29.89,3.1,Calm,Calm,-,N/A,Rain,Light Rain,0,2011-11-12 18:00:00
1:30 AM,77.0,73.4,89,29.89,4.3,Calm,Calm,-,N/A,,Mostly Cloudy,0,2011-11-12 18:30:00
2:00 AM,77.0,73.4,89,29.86,4.3,Variable,2.3,-,N/A,,Mostly Cloudy,0,2011-11-12 19:00:00
2:30 AM,77.0,73.4,89,29.86,4.3,Variable,2.3,-,N/A,,Mostly Cloudy,0,2011-11-12 19:30:00
3:00 AM,77.0,73.4,89,29.83,4.3,Variable,2.3,-,N/A,,Mostly Cloudy,0,2011-11-12 20:00:00
3:30 AM,77.0,73.4,89,29.83,4.3,Calm,Calm,-,N/A,,Mostly Cloudy,0,2011-11-12 20:30:00
4:00 AM,77.0,73.4,89,29.83,4.3,Calm,Calm,-,N/A,,Mostly Cloudy,0,2011-11-12 21:00:00
4:30 AM,77.0,73.4,89,29.83,4.3,Calm,Calm,-,N/A,,Mostly Cloudy,0,2011-11-12 21:30:00
5:00 AM,77.0,73.4,89,29.83,4.3,Calm,Calm,-,N/A,,Mostly Cloudy,0,2011-11-12 22:00:00
5:30 AM,77.0,73.4,89,29.86,4.3,Calm,Calm,-,N/A,,Mostly Cloudy,0,2011-11-12 22:30:00
6:00 AM,75.2,73.4,94,29.86,5.0,Calm,Calm,-,N/A,,Scattered Clouds,0,2011-11-12 23:00:00
6:30 AM,75.2,73.4,94,29.86,5.0,Variable,2.3,-,N/A,,Scattered Clouds,0,2011-11-12 23:30:00
7:00 AM,76,75,96,29.82,6,Calm,Calm,,,,Partly Cloudy,,2011-11-13 00:00:00
7:00 AM,77.0,73.4,89,29.86,5.6,Calm,Calm,-,N/A,,Scattered Clouds,0,2011-11-13 00:00:00
7:30 AM,78.8,75.2,89,29.86,6.2,Calm,Calm,-,N/A,,Scattered Clouds,0,2011-11-13 00:30:00
8:00 AM,80.6,73.4,79,29.89,6.2,ENE,6.9,-,N/A,,Scattered Clouds,70,2011-11-13 01:00:00
8:30 AM,82.4,75.2,79,29.92,6.2,NE,6.9,-,N/A,,Scattered Clouds,50,2011-11-13 01:30:00
9:00 AM,82.4,75.2,79,29.92,6.2,ENE,11.5,-,N/A,,Mostly Cloudy,70,2011-11-13 02:00:00
9:30 AM,84.2,73.4,70,29.92,6.2,NE,8.1,-,N/A,,Mostly Cloudy,50,2011-11-13 02:30:00
10:00 AM,84.2,73.4,70,29.92,6.2,ENE,6.9,-,N/A,,Mostly Cloudy,70,2011-11-13 03:00:00
10:30 AM,84.2,71.6,66,29.92,6.2,ENE,8.1,-,N/A,,Mostly Cloudy,70,2011-11-13 03:30:00
11:00 AM,86.0,73.4,66,29.89,6.2,East,6.9,-,N/A,,Mostly Cloudy,80,2011-11-13 04:00:00
11:30 AM,86.0,71.6,62,29.89,6.2,ENE,6.9,-,N/A,,Mostly Cloudy,70,2011-11-13 04:30:00
12:30 PM,84.2,73.4,70,29.86,6.2,East,6.9,-,N/A,,Mostly Cloudy,90,2011-11-13 05:30:00
1:00 PM,86,75,62,29.84,6,ESE,9.2,,,,Scattered Clouds,110,2011-11-13 06:00:00
1:00 PM,86.0,75.2,70,29.83,6.2,ESE,9.2,-,N/A,,Mostly Cloudy,110,2011-11-13 06:00:00
1:30 PM,87.8,73.4,62,29.83,6.2,East,6.9,-,N/A,,Mostly Cloudy,90,2011-11-13 06:30:00
2:00 PM,87.8,71.6,58,29.83,6.2,East,6.9,-,N/A,,Mostly Cloudy,100,2011-11-13 07:00:00
2:30 PM,87.8,71.6,58,29.80,6.2,East,4.6,-,N/A,,Mostly Cloudy,100,2011-11-13 07:30:00
3:00 PM,87.8,73.4,62,29.80,6.2,WSW,4.6,-,N/A,,Mostly Cloudy,250,2011-11-13 08:00:00
3:30 PM,86.0,75.2,70,29.80,6.2,West,6.9,-,N/A,,Mostly Cloudy,270,2011-11-13 08:30:00
4:00 PM,87.8,73.4,62,29.80,6.2,WSW,6.9,-,N/A,,Mostly Cloudy,240,2011-11-13 09:00:00
4:30 PM,86.0,73.4,66,29.80,6.2,West,5.8,-,N/A,,Mostly Cloudy,260,2011-11-13 09:30:00
5:00 PM,86.0,73.4,66,29.80,6.2,WSW,6.9,-,N/A,,Mostly Cloudy,250,2011-11-13 10:00:00
5:30 PM,86.0,73.4,66,29.80,6.2,WNW,6.9,-,N/A,,Mostly Cloudy,290,2011-11-13 10:30:00
6:00 PM,84.2,75.2,74,29.83,6.2,NW,5.8,-,N/A,,Mostly Cloudy,320,2011-11-13 11:00:00
6:30 PM,82.4,75.2,79,29.83,5.0,NNE,6.9,-,N/A,,Mostly Cloudy,20,2011-11-13 11:30:00
7:00 PM,85,75,66,29.79,6,ENE,4.6,,,,Scattered Clouds,60,2011-11-13 12:00:00
7:00 PM,80.6,73.4,79,29.86,5.0,NNE,3.5,-,N/A,,Mostly Cloudy,20,2011-11-13 12:00:00
7:30 PM,80.6,73.4,79,29.86,5.0,East,8.1,-,N/A,,Mostly Cloudy,80,2011-11-13 12:30:00
8:00 PM,80.6,73.4,79,29.89,6.2,ENE,5.8,-,N/A,,Mostly Cloudy,70,2011-11-13 13:00:00
8:30 PM,80.6,73.4,79,29.89,6.2,ENE,5.8,-,N/A,Thunderstorm,Thunderstorm,60,2011-11-13 13:30:00
9:00 PM,80.6,73.4,79,29.92,6.2,ENE,6.9,-,N/A,Thunderstorm,Thunderstorm,70,2011-11-13 14:00:00
9:30 PM,80.6,71.6,74,29.92,5.0,ENE,9.2,-,N/A,,Mostly Cloudy,60,2011-11-13 14:30:00
10:00 PM,80.6,71.6,74,29.92,5.0,ENE,6.9,-,N/A,,Mostly Cloudy,60,2011-11-13 15:00:00
10:30 PM,78.8,71.6,78,29.92,5.0,Calm,Calm,-,N/A,Rain,Rain,0,2011-11-13 15:30:00
11:00 PM,77.0,71.6,83,29.92,5.0,Calm,Calm,-,N/A,,Mostly Cloudy,0,2011-11-13 16:00:00
11:30 PM,77.0,73.4,89,29.92,4.3,East,3.5,-,N/A,Rain,Rain,100,2011-11-13 16:30:00